Temperature
17 17 17 17 17 17 16 16 16 16 16 17 17 17 16 16 16 16 16 16 16 16 16 15 15 15 15 15 15 15 15 14 14 14 14 14 14 14
17 17 17 17 17 17 16 16 16 16 16 16 16 16 16 16 16 16 16 16 15 15 15 15 15 15 15 15 15 14 14 14 14 14 14 14 14 14
17 17 17 17 17 17 16 16 16 16 16 16 16 16 16 16 15 15 15 15 15 15 15 15 15 15 14 14 14 14 14 14 14 14 14 14 13 13
17 17 17 17 17 16 16 16 16 16 16 16 16 16 16 15 15 15 15 15 15 15 15 14 14 14 14 14 14 14 14 14 14 13 13 13 13 13
17 17 17 16 16 16 16 16 16 16 16 16 16 16 15 15 15 15 15 15 15 14 14 14 14 14 14 14 14 14 14 13 13 13 13 13 13 13
17 17 17 16 16 16 16 16 16 16 16 15 15 15 15 15 15 15 15 15 14 14 14 14 14 14 14 14 13 13 13 13 13 13 13 12 12 12
17 17 17 16 16 16 16 16 16 15 15 15 15 15 15 15 15 15 14 14 14 14 14 14 14 13 13 13 13 13 13 13 13 13 12 12 12 12
17 17 17 16 16 16 16 16 16 15 15 15 15 15 15 15 14 14 14 14 13 14 13 13 13 13 13 13 13 13 13 12 12 12 12 12 12 12
17 17 17 16 16 16 16 15 15 15 15 15 15 15 15 14 14 14 14 13 13 13 13 13 13 13 13 13 13 12 12 12 12 12 12 11 11 11
16 16 16 16 16 15 15 15 15 15 15 15 15 15 14 14 14 14 14 13 13 13 13 13 13 13 13 12 12 12 12 12 11 11 11 11 11 11
16 16 16 16 15 15 15 15 15 15 14 14 14 14 14 14 13 13 13 13 13 13 12 12 12 12 12 12 12 12 11 11 11 11 11 11 10 10
16 15 15 15 15 15 15 15 15 14 14 14 14 14 14 13 13 13 13 13 13 12 12 12 12 12 11 11 11 11 11 11 11 10 10 10 10 10
15 15 15 15 15 14 14 14 14 14 14 14 14 13 13 13 13 13 13 12 12 12 12 12 11 11 11 11 11 11 11 10 10 10 10 10 9 9
14 14 14 14 14 14 14 14 14 13 13 13 13 13 13 13 12 12 12 12 12 12 11 11 11 11 11 11 10 10 10 10 10 10 9 9 9 9
14 14 14 14 13 13 13 13 13 13 13 13 13 12 12 12 12 12 12 11 11 11 11 11 11 10 10 10 10 10 10 10 9 9 9 9 9 9
13 13 13 13 13 13 13 13 13 12 12 12 12 12 11 11 11 11 11 11 11 11 10 10 10 10 10 10 10 10 9 9 9 9 9 9 9 8
13 13 12 12 12 12 12 12 12 12 12 11 11 11 11 11 11 10 10 10 10 10 10 10 10 9 9 9 9 9 9 9 9 9 9 8 8 8
12 12 12 12 12 12 12 12 12 11 11 11 11 11 10 10 10 10 9 9 9 9 9 9 9 9 9 8 8 8 8 8 8 8 8 8 8 8
12 12 11 12 12 11 11 11 11 11 10 10 10 10 10 9 9 9 9 9 9 9 8 8 8 8 8 8 8 8 8 8 8 8 8 7 7 7
11 11 11 11 11 11 10 10 10 10 10 10 9 9 9 9 9 8 8 8 8 8 8 8 8 8 7 7 7 7 7 7 7 7 7 7 7 7
10 10 10 10 10 10 10 10 9 9 9 9 9 9 8 8 8 8 8 8 8 8 7 7 7 7 7 7 6 6 7 7 7 7 7 6 6 6
10 9 10 10 10 9 9 9 9 9 8 8 8 8 8 8 8 7 7 7 7 7 7 7 7 6 6 6 6 6 6 6 6 6 6 6 6 6
9 9 9 9 9 9 9 9 8 8 8 8 8 8 8 7 7 7 7 6 6 6 6 6 6 6 6 6 6 6 6 6 6 6 6 5 5 5
Wind_Speed
4 5 4 3 3 4 4 4 3 3 3 2 2 1 2 2 3 3 3 3 4 4 4 4 4 5 4 4 4 4 5 6 6 6 6 6 7 8
3 4 4 3 3 3 4 4 4 4 3 2 2 1 1 2 2 2 2 3 3 3 4 4 4 4 4 4 4 4 4 4 5 5 5 5 5 7
4 4 5 4 3 3 3 3 4 4 4 3 2 1 2 2 1 2 2 2 2 3 3 3 4 3 3 3 3 3 3 4 5 5 5 5 5 6
5 5 5 4 4 3 3 4 4 4 4 4 2 2 2 2 2 2 2 2 2 2 3 3 4 4 3 3 3 3 3 3 4 4 4 4 4 5
5 5 5 4 4 4 4 4 3 3 3 3 3 2 2 1 1 2 2 1 2 3 3 4 4 4 4 4 4 3 3 3 3 4 4 4 4 4
6 6 6 6 6 5 4 5 4 3 3 3 3 2 2 1 2 2 2 2 2 2 2 3 4 4 4 4 4 5 4 4 3 4 4 4 4 5
5 5 6 6 7 6 5 5 4 4 3 3 3 2 3 2 3 3 3 2 2 2 2 2 3 3 3 4 5 5 5 5 5 5 4 4 4 4
5 5 5 6 6 7 7 7 7 6 5 4 4 4 5 5 4 3 3 2 3 2 3 3 2 3 3 4 5 5 5 5 5 5 5 4 4 4
5 5 4 4 5 4 5 5 6 6 7 6 5 6 5 5 5 5 5 5 4 2 3 3 2 3 3 4 6 6 6 6 6 6 6 5 5 4
5 5 5 4 4 4 4 4 4 4 5 5 5 6 5 4 6 6 5 4 1 1 3 3 2 3 2 2 5 7 7 7 7 7 6 6 6 5
5 4 4 4 4 5 5 4 4 3 3 4 4 3 2 3 4 3 3 3 3 2 2 2 2 2 1 1 3 7 8 8 7 7 6 6 6 6
3 3 4 4 4 6 5 5 5 4 2 1 1 0 0 1 3 4 4 4 2 2 3 3 2 2 1 1 2 3 5 6 7 7 7 7 7 5
3 3 3 4 4 5 5 4 5 3 2 2 1 1 1 0 1 1 2 3 3 2 2 3 2 2 2 1 1 2 3 3 3 4 6 6 7 7
3 3 2 4 4 5 4 3 3 3 2 2 1 1 0 0 0 1 1 1 1 2 3 4 3 3 3 2 2 1 2 2 2 2 3 4 6 7
2 2 2 3 3 3 3 4 4 3 3 2 2 2 1 1 1 1 1 1 1 1 1 3 3 3 3 3 2 2 2 2 3 2 3 3 4 4
1 1 2 2 2 2 2 2 2 3 3 3 2 1 0 0 1 1 1 1 1 1 1 1 3 4 3 3 2 2 2 2 2 2 2 3 3 5
2 1 1 2 2 1 1 2 2 2 2 2 2 2 1 1 0 0 0 1 1 0 1 1 0 1 2 3 2 2 2 2 2 2 2 2 3 4
3 2 2 3 3 3 3 2 2 2 2 2 2 2 2 2 1 0 1 1 1 1 0 1 0 1 0 1 3 3 3 2 2 2 3 3 3 3
3 3 3 3 3 3 3 3 3 3 2 2 2 2 2 2 1 1 1 1 1 0 1 0 0 1 2 3 2 4 4 2 2 2 2 3 3 3
2 3 3 3 3 3 3 3 3 3 2 2 2 2 2 2 2 2 2 2 1 1 1 1 1 1 3 3 2 2 4 3 3 3 2 2 2 2
3 3 3 3 3 3 3 2 3 3 3 3 2 2 2 2 2 2 2 2 2 2 2 2 2 3 1 1 1 1 1 2 3 3 2 2 1 1
3 3 3 2 2 2 2 2 2 2 2 2 2 2 2 2 2 3 2 2 2 2 2 1 1 0 1 1 2 2 1 1 0 1 2 3 2 2
3 3 3 2 2 2 2 3 3 2 2 2 2 2 2 2 2 2 2 2 2 1 1 0 0 0 1 1 2 2 2 1 1 1 1 3 5 6
Wind_Direction
215 218 222 227 214 216 213 203 201 240 259 245 243 243 220 217 222 207 206 211 209 209 205 203 207 210 208 211 220 225 227 226 227 230 228 230 231 220
221 221 226 231 224 217 217 216 208 212 240 239 231 256 231 216 217 204 207 211 207 196 193 193 195 205 208 208 217 225 228 227 223 218 219 222 211 207
229 228 235 223 216 215 211 209 210 201 225 251 228 238 206 211 210 201 213 215 218 204 202 196 188 188 197 206 212 219 226 223 213 210 212 207 197 188
230 228 237 225 215 217 211 214 217 212 211 237 236 219 218 215 218 222 218 218 221 214 205 199 195 194 192 194 201 202 203 201 195 189 185 181 176 179
224 222 229 218 224 224 220 222 224 218 206 215 237 228 232 214 219 230 228 230 229 222 212 212 209 203 201 199 196 193 190 194 193 186 175 166 168 177
223 223 225 217 223 221 222 223 217 209 204 210 230 237 240 225 211 226 239 237 236 223 210 211 216 212 209 205 202 199 195 193 186 179 173 170 175 178
227 229 230 223 221 217 217 214 205 207 208 220 232 231 229 222 228 220 229 236 232 218 214 218 216 221 223 224 219 210 201 196 189 179 173 169 168 170
231 236 235 232 230 221 220 211 200 203 211 218 231 234 237 229 222 218 216 225 244 209 208 230 208 225 230 224 216 203 198 192 183 173 166 163 164 164
226 229 232 234 216 218 219 213 211 210 206 209 223 234 238 224 210 215 217 224 234 207 191 228 214 233 238 220 199 188 181 174 172 170 169 174 178 179
225 220 215 223 220 208 205 211 221 225 224 219 229 239 240 224 213 218 219 220 229 211 196 226 220 232 234 208 191 187 178 173 174 175 178 186 191 191
230 224 214 216 219 196 197 215 233 249 238 221 231 247 248 215 192 182 184 198 234 226 202 220 222 222 225 222 194 186 182 181 183 185 189 192 194 192
228 226 221 219 213 193 203 210 230 244 220 208 213 308 216 185 184 197 197 201 218 229 201 201 203 191 219 225 200 178 183 192 193 197 200 198 193 188
223 227 226 204 200 191 197 211 222 212 184 178 162 124 87 107 178 205 201 199 205 227 195 188 194 196 204 204 214 194 184 181 183 196 204 207 198 190
220 224 210 185 189 185 189 203 190 161 141 139 139 155 181 232 229 186 169 179 199 217 193 182 190 193 191 197 213 200 193 187 178 185 197 203 204 204
213 206 192 168 168 181 181 165 153 148 148 159 189 221 241 233 158 126 122 120 87 56 166 195 198 198 200 206 206 198 201 210 201 196 196 199 202 203
198 153 133 131 141 132 125 143 154 159 165 183 196 209 211 123 124 112 121 109 80 15 359 233 206 196 204 214 206 214 201 197 197 199 201 214 213 210
167 147 159 164 165 165 156 152 154 155 174 188 182 174 179 182 180 149 132 119 154 225 345 351 324 186 199 196 200 207 200 197 193 185 191 221 230 222
146 172 192 191 192 194 187 180 171 182 194 195 195 194 196 197 192 156 140 152 176 211 275 351 64 106 154 245 221 216 213 213 205 188 191 218 244 237
148 177 196 204 201 198 195 193 200 200 193 188 197 202 198 195 185 183 178 157 170 230 280 273 257 186 230 260 250 205 214 219 200 195 208 220 242 249
172 193 205 211 206 201 199 199 200 196 182 183 194 199 184 182 188 194 201 196 200 214 235 253 259 239 234 248 258 246 208 211 210 214 224 236 255 261
195 206 209 208 208 205 197 194 195 193 183 185 192 195 196 188 193 197 202 194 195 207 219 248 267 269 246 211 235 271 267 221 207 219 213 217 253 255
194 197 199 195 197 196 180 177 181 186 184 193 201 200 200 196 196 195 197 204 213 223 235 274 337 282 205 223 253 280 303 327 306 176 192 200 222 243
195 190 185 184 186 185 181 182 187 195 199 201 204 205 199 197 202 199 206 211 209 215 236 272 323 257 251 247 256 282 293 294 307 291 281 277 259 262
Height
1534 1534 1535 1535 1535 1535 1535 1535 1535 1534 1533 1533 1533 1533 1533 1532 1532 1532 1531 1531 1531 1531 1530 1530 1530 1530 1530 1531 1531 1531 1531 1532 1532 1533 1533 1534 1535 1535
1531 1531 1531 1531 1532 1532 1532 1532 1532 1532 1530 1530 1530 1530 1530 1530 1530 1529 1529 1528 1528 1528 1527 1527 1527 1527 1527 1527 1528 1528 1528 1528 1529 1529 1530 1530 1530 1531
1528 1528 1528 1529 1528 1528 1528 1528 1529 1528 1527 1527 1527 1527 1527 1527 1527 1527 1526 1526 1525 1525 1525 1524 1524 1524 1524 1524 1524 1525 1525 1525 1525 1526 1526 1527 1527 1527
1525 1525 1525 1525 1525 1525 1525 1525 1525 1525 1525 1524 1524 1524 1524 1524 1524 1523 1523 1523 1522 1522 1522 1522 1522 1521 1521 1521 1521 1522 1522 1522 1523 1523 1524 1524 1524 1524
1522 1522 1522 1522 1521 1522 1522 1522 1522 1522 1521 1521 1521 1521 1520 1520 1520 1520 1520 1520 1519 1519 1519 1519 1519 1519 1519 1519 1519 1519 1519 1519 1520 1520 1521 1521 1521 1521
1518 1518 1518 1517 1518 1518 1518 1518 1518 1518 1518 1518 1518 1518 1517 1517 1517 1517 1517 1517 1516 1516 1516 1516 1516 1516 1516 1516 1516 1516 1516 1516 1517 1517 1517 1518 1518 1518
1513 1513 1514 1514 1514 1514 1514 1514 1514 1514 1514 1514 1514 1514 1514 1514 1514 1514 1513 1513 1513 1513 1513 1513 1513 1513 1513 1513 1513 1513 1513 1514 1514 1514 1514 1514 1515 1515
1508 1509 1509 1510 1510 1510 1510 1510 1511 1511 1510 1510 1510 1510 1510 1510 1510 1510 1510 1510 1510 1510 1510 1510 1510 1510 1510 1510 1510 1510 1510 1510 1511 1511 1511 1511 1511 1512
1504 1504 1504 1505 1506 1506 1506 1506 1507 1507 1507 1507 1507 1506 1507 1507 1507 1506 1506 1506 1506 1507 1507 1506 1506 1506 1507 1506 1507 1507 1507 1507 1507 1507 1508 1508 1508 1508
1499 1499 1500 1500 1501 1502 1502 1502 1502 1503 1503 1503 1503 1503 1503 1503 1503 1503 1503 1503 1502 1502 1503 1502 1502 1502 1503 1502 1503 1503 1503 1504 1504 1504 1505 1505 1505 1505
1495 1495 1495 1495 1496 1497 1498 1498 1498 1498 1499 1499 1499 1499 1499 1499 1499 1499 1498 1498 1498 1498 1498 1498 1498 1498 1499 1498 1499 1499 1499 1500 1500 1501 1501 1501 1501 1502
1490 1490 1490 1491 1491 1492 1493 1493 1493 1494 1494 1494 1495 1494 1494 1494 1494 1494 1494 1494 1494 1494 1494 1494 1494 1495 1495 1495 1495 1495 1495 1496 1497 1497 1497 1498 1498 1498
1485 1485 1485 1486 1486 1487 1488 1489 1489 1490 1490 1490 1490 1490 1490 1490 1490 1490 1490 1490 1490 1489 1490 1490 1490 1490 1491 1491 1491 1492 1492 1492 1493 1493 1494 1494 1495 1495
1480 1481 1481 1482 1482 1483 1483 1484 1485 1486 1485 1485 1485 1485 1486 1486 1486 1486 1486 1486 1486 1486 1486 1486 1486 1486 1487 1487 1487 1488 1488 1489 1489 1489 1490 1491 1491 1491
1476 1477 1477 1478 1478 1479 1479 1480 1481 1481 1481 1481 1481 1482 1482 1482 1482 1482 1482 1482 1482 1482 1481 1481 1482 1482 1483 1483 1483 1483 1484 1484 1485 1485 1486 1487 1486 1487
1472 1473 1473 1474 1475 1475 1476 1476 1476 1477 1477 1478 1478 1478 1479 1479 1478 1478 1478 1478 1478 1477 1478 1478 1477 1478 1478 1479 1479 1479 1480 1480 1481 1481 1482 1483 1483 1483
1469 1469 1470 1470 1471 1471 1472 1472 1472 1473 1473 1474 1474 1474 1474 1474 1474 1474 1474 1474 1474 1474 1474 1474 1474 1474 1474 1475 1475 1475 1476 1476 1477 1477 1478 1478 1479 1479
1465 1465 1466 1467 1467 1467 1468 1468 1468 1468 1469 1470 1470 1470 1470 1470 1470 1470 1471 1471 1471 1471 1471 1471 1471 1471 1471 1471 1472 1472 1472 1472 1473 1473 1473 1473 1474 1475
1461 1461 1462 1463 1464 1464 1464 1465 1465 1465 1465 1465 1466 1466 1466 1466 1466 1467 1467 1467 1467 1468 1468 1468 1468 1467 1467 1467 1467 1468 1468 1468 1469 1469 1469 1469 1469 1470
1457 1458 1458 1459 1460 1460 1461 1461 1461 1462 1461 1462 1462 1462 1462 1462 1462 1463 1464 1464 1464 1465 1465 1465 1465 1464 1464 1464 1464 1464 1465 1465 1465 1465 1465 1465 1466 1466
1453 1454 1455 1456 1456 1457 1456 1457 1457 1457 1457 1458 1459 1459 1459 1459 1459 1460 1461 1461 1462 1462 1461 1461 1462 1462 1461 1461 1461 1460 1460 1461 1460 1461 1461 1461 1461 1462
1451 1451 1452 1452 1453 1453 1453 1454 1454 1454 1455 1455 1455 1456 1456 1456 1457 1457 1458 1459 1459 1459 1459 1459 1459 1459 1459 1458 1458 1458 1458 1457 1457 1458 1458 1459 1458 1458
1447 1448 1449 1449 1450 1450 1451 1451 1451 1452 1452 1452 1453 1453 1453 1453 1454 1454 1455 1456 1456 1456 1456 1456 1456 1456 1456 1456 1456 1456 1455 1455 1455 1454 1455 1455 1456 1456